Weather in Krasnyy Yar

Russia / Kaliningrad Oblast     54°41′06″N   21°21′28″E
temp.,
°C
wind,
m/s
gust,
m/s
humid.,
%
clouds,
%
prec.,
mm/h
press.,
hPa
HPBL,
m
4 march, thu
thu423:00+1wsw23910 0.0 101678
02:00+1wsw37910 0.0 1013158
05:00+1w39950 0.0 1011258
08:000w389721 0.0 1010220
11:00+4nw358598 0.0 1011489
14:00+3nnw476498 0.0 1011769
17:00+1nnw4874100 0.1 1011787
20:00−1nnw398097 0.1 1013323
5 march, fri
fri523:00−1n39790 0.0 1014391
02:00−2nnw25820 0.0 1015137
05:00−2nw258023 0.0 1015206
08:00−1nnw287133 0.1 1017565
11:00+1nnw584897 0.1 10191548
14:00+2nnw463849 0.1 10201397
17:00+1nw475414 0.0 10211417
20:00−1w277049 0.1 1023322
6 march, sat
sat623:00−2nw2575100 0.1 1024165
02:00−2wnw257392 0.2 1026266
05:00−3nnw117655 0.0 102630
08:00−3ssw016927 0.0 102723
11:00+2wsw47500 0.0 10261422
14:00+4w694640 0.0 10251607
17:00+2wsw6125111 0.0 10221356
20:00+1wsw6145738 0.0 10191034
7 march, sun
sun723:00+2w81695100 0.5 10161267
02:00+2w81783100 0.6 10131427
05:00+2w81687100 0.3 10111172
08:00+2wnw81496100 1.2 10111046
11:000nw5992100 2.6 1012741
14:00+1nw61061100 3.2 10121421
17:00+1nw5961100 0.0 10131439
20:00−2nw3117467 0.0 1014401
8 march, mon
mon823:00−3nw287812 0.0 1016276
02:00−3nw3107837 0.0 1017435
05:00−3nnw399197 0.1 1017703
08:00−3n488898 0.4 1019793
11:00−1nnw585696 0.1 10211325
14:000nnw465049 0.1 10231183
17:00−1nnw45500 0.0 10231003
20:00−4n22667 0.0 102553